Location: Mentone
(34.5413°N, 85.5351°W)
Time: 23:39:42
(UTC-05:00)

Uosat F - Visible Passes

Search period start: 26 April 2018 00:00
Search period end: 06 May 2018 00:00
Orbit: 749 x 762 km, 98.7° (Epoch: 26 April)

Date Brightness Start Highest point End Pass type
(mag) Time Alt. Az. Time Alt. Az. Time Alt. Az.
26 Apr 12.2 20:02:41 10° S 20:07:29 46° W 20:12:18 10° NNW visible
27 Apr 14.1 21:05:52 10° WSW 21:07:06 11° W 21:08:21 10° WNW visible
28 Apr 13.0 20:22:57 10° SSW 20:27:16 29° W 20:31:37 10° NW visible
30 Apr 13.7 20:43:42 10° SW 20:47:08 18° W 20:50:34 10° NW visible
01 May 12.1 20:02:36 10° S 20:07:24 47° W 20:12:14 10° NNW visible
02 May 14.0 21:05:39 10° WSW 21:07:02 11° W 21:08:25 10° WNW visible
03 May 13.0 20:22:52 10° SSW 20:27:12 30° W 20:31:34 10° NW visible
05 May 13.7 20:43:35 10° SW 20:47:03 19° W 20:50:32 10° NW visible
